Location: Lafig�re
(44.4503°N, 4.0357°E)
Time: 01:14:05
(UTC+00:00)

Transit 4A - Pass Details

Date: 22 January 2021
Orbit: 866 x 979 km, 66.8° (Epoch: 24 February)

Event Time Altitude Azimuth Distance (km) Brightness Sun altitude
Rises 20:53:10 0° 253° (WSW) 3,673 11.6 -44.8°
Reaches altitude 10° 20:56:15 10° 267° (W) 2,729 10.8 -45.3°
Enters shadow 20:58:41 19° 286° (WNW) 2,141 10.2 -45.7°
Maximum altitude 21:01:24 25° 321° (NW) 1,861 - -46.2°
Drops below altitude 10° 21:06:33 10° 15° (NNE) 2,714 - -47.0°
Sets 21:09:37 0° 28° (NNE) 3,649 - -47.5°
